STARLINK-37122, 68678

Orbit data source: Space-Track

STARLINK-37122, 68678 is a payload satellite owned by SpaceX/Seattle (US) in SSO that was launched on Sat, 11 Apr 2026 UTC via an FALCON 9 launch vehicle from the Air Force Western Test Range (AFWTR). Payload-class satellites include a variety of spacecraft equipped with specific instruments for various scientific and technological missions. These include communications satellites like Starlink; space stations such as the ISS; scientific satellites like the Hubble; Earth observation satellites from companies like Planet Labs, Umbra, and HawkEye 360; GPS; miniature CubeSats for education and research; and military/defense satellites.

Loading next visibility...
Identifier
68678, 2026-077S
Orbit
SSO
Country
Flag of USUS
Related business
Manufacturer
SpaceX/Seattle
Mission
Operational spacecraft
Bus & Motor
STARLINK V2MO, Unknown motor
Mass
575 kg wet, ~530 kg dry
Launch date (UTC)
2026-04-11 (2 months ago)
Launch vehicle
FALCON 9
Launch site
Air Force Western Test Range (AFWTR)
Object type
Payload
Rocket body
Debris
Shape & HBR
Unknown shape, 14.5 m
Radar Cross Section
Large (>1 m²)

Expand to show TLE details & history
Last TLE update: 12 hours ago

TLE from 12 hours ago
0 STARLINK-37122
1 68678U 26077S   26171.35333223  .00018377  00000-0  57010-3 0  9990
2 68678  97.2898  42.5884 0001153 119.0947 241.0411 15.33448974 10891
Epoch: 2026-06-20T08:28Z
TLE epoch observation values (Epoch: 2026-06-20T08:28:47.904Z)
Latitude
-0.00006°
Longitude
6.81964°
Altitude
469.025 km
Speed
7.631 km/s
True Right ascension
02h 50m 21s
True Declination
0° 00' 00"
Sunlit
Object was in daylight at epoch
Visualization orbit readout
Latitude
Unknown
Longitude
Unknown
Altitude
Unknown
Speed
Unknown
Apparent Right ascension
Unknown
Apparent Declination
Unknown
Sunlit
N/A
Visualization observer readout
Local Sidereal Time
07:23:41
Azimuth
Unknown
Elevation
Unknown
Doppler factor
Unknown
Orbital elements
Apogee altitude
463.263 km
Perigee altitude
461.686 km
Semi-major axis
6,840.611 km
Eccentricity
0.00012
Inclination
97.2898°
RAAN
42.5884°
Arg. of periapsis
119.0947°
True anomaly
241.02954°
Mean anomaly
241.0411°
Eccentric anomaly
241.03532°
Mean motion
3.8362 °/min
Orbital period
93.84 mins
BSTAR
0.0005701
Loading maneuver chart data...
Computing Atmospheric mass density...
Loading historical data...
Loading historical data...
Loading historical data...
Loading historical data...
Loading historical data...
Loading historical data...
Loading historical data...

Documentation

Showing up to 5 results
|